Location: ?????
(30.2942°N, 31.2466°E)
Time: 14:37:41
(UTC+00:00)

Daily predictions for brighter satellites

Satellite Brightness Start Highest point End
(mag) Time Altitude Azimuth Time Altitude Azimuth Time Altitude Azimuth
IRIDIUM 104 4.3 17:14:28 10° S 17:19:39 75° E 17:24:51 10° N
Cosmos 1328 3.5 17:23:53 10° S 17:27:29 71° E 17:31:07 10° N
IRIDIUM 114 4.4 17:23:35 10° S 17:28:47 87° W 17:34:01 10° N
Cosmos 2034 Rocket 4.4 17:23:09 10° N 17:29:14 46° E 17:35:17 10° SSE
Meteor 1-24 Rocket 4.0 17:25:47 10° SSW 17:31:23 73° W 17:36:50 10° N
SJ-6B 3.3 17:29:10 10° S 17:32:38 54° W 17:36:05 10° NNW
Tiangong -2.0 17:31:08 10° WSW 17:34:22 82° NNW 17:37:38 10° ENE
Cosmos 2082 Rocket 2.5 17:29:04 10° N 17:34:39 54° ENE 17:40:12 10° SE
DELTA 2 R/B (1) 3.7 17:30:27 10° WSW 17:35:59 84° NNW 17:41:33 10° ENE
Cosmos 1300 Rocket 3.9 17:32:02 10° N 17:36:13 46° E 17:40:19 10° SSE
Cosmos 2369 Rocket 2.6 17:32:39 10° S 17:37:58 42° ESE 17:43:16 10° NE
USA 267 3.5 17:34:18 10° SE 17:40:50 72° SW 17:47:23 10° NW
CZ-4 R/B 1.2 17:37:23 10° SSE 17:40:59 63° ENE 17:44:40 10° N
Cosmos 1461 3.4 17:37:54 10° NW 17:41:52 55° WSW 17:45:45 10° SSE
Tsikada Rocket 4.1 17:36:15 10° S 17:42:28 62° E 17:48:47 10° NNE
Cosmos 1777 Rocket 4.3 17:38:14 10° S 17:43:08 42° E 17:48:01 10° NNE
Terra 3.7 17:41:20 10° E 17:43:40 14° ENE 17:46:01 10° NE
BREEZE-M R/B 4.0 17:39:51 10° WNW 17:44:54 33° SW 17:47:52 10° SSE
Resurs 01 Rocket 2.3 17:41:10 10° S 17:45:28 55° W 17:49:48 10° NNW
Delta 7925 Rocket 4.1 17:41:42 10° SW 17:45:43 29° SSE 17:49:15 13° ESE
Cosmos 1908 Rocket 4.4 17:46:09 10° NNW 17:50:28 51° W 17:54:44 10° SSW
USA 186 1.9 17:49:28 17° SE 17:51:10 38° ENE 17:53:43 10° N
Okean-O 4.4 17:51:55 13° E 17:53:45 16° ENE 17:56:26 10° NNE
Cosmos 158 Rocket 4.1 17:53:56 10° NNW 17:58:46 71° WSW 18:03:36 10° S
Okean O Rocket 2.8 17:56:56 17° ESE 17:59:05 25° ENE 18:02:39 10° NNE
Cosmos 2263 4.4 17:55:46 10° S 18:01:12 49° ESE 18:06:37 10° NNE
SPOT 5 3.2 17:56:43 12° SSE 18:01:23 59° ENE 18:06:36 10° N
PAYLOAD B 4.2 17:58:14 10° SSE 18:03:44 80° ENE 18:09:15 10° N
Cosmos 1606 2.0 18:01:28 10° N 18:04:32 73° E 18:06:26 20° SSE
CZ-4B R/B 3.6 18:03:46 23° ESE 18:05:06 30° ENE 18:08:19 10° NNE
Cosmos 1340 Rocket 3.7 18:06:26 10° NNE 18:09:43 27° ENE 18:10:37 24° ESE
Cosmos 1570 Rocket 4.0 18:05:52 10° N 18:11:06 63° ENE 18:14:31 21° SSE
Helios 1B rocket 3.0 18:16:58 29° E 18:17:46 32° ENE 18:21:04 10° N
ERS-1 Rocket 3.5 18:16:04 25° SE 18:18:26 41° ENE 18:23:05 10° N
OAO 3 Copernicus 4.2 18:14:06 10° WSW 18:19:06 81° SSE 18:23:40 12° ENE
ADEOS 4.4 18:25:29 10° S 18:30:28 48° W 18:35:29 10° NNW
OAO 2 Rocket 3.3 18:26:08 10° SW 18:30:57 54° SSE 18:33:07 30° E
Cosmos 990 Rocket 4.0 18:29:23 18° S 18:33:02 58° ESE 18:38:06 10° NNE
CZ-4C R/B 1.4 18:35:27 10° SSW 18:39:17 81° WNW 18:43:52 10° NNE
Helios 1A 2.7 18:40:37 10° NNE 18:44:34 86° WNW 18:46:02 38° SSW
IRS-1A Rocket 4.3 18:43:25 38° SE 18:45:23 62° ENE 18:50:50 10° N
BREEZE-M DEB (TANK) 4.3 18:45:33 10° WNW 18:47:11 18° NNW 18:49:16 10° NNE
Nadezhda 4 Rocket 4.2 18:45:06 36° SE 18:47:19 50° E 18:53:23 10° NNE
Okean 2 Rocket 3.7 18:43:28 10° NNE 18:47:18 37° ENE 18:47:18 37° ENE
Aureole 1 Rocket 4.4 18:49:35 38° ESE 18:50:32 40° E 18:57:01 10° NNE
Hubble Space Telescope 2.2 18:50:22 10° SW 18:52:05 23° SW 18:52:05 23° SW
Cosmos 2151 Rocket 3.6 18:50:12 10° N 18:54:39 61° E 18:54:52 60° E
Meteor 1-11 4.2 18:54:26 38° SSE 18:56:43 71° E 19:02:30 10° NNE
Cosmos 2221 Rocket 3.5 18:57:46 58° S 18:58:38 89° ESE 19:03:11 10° N
Okean 1 Rocket 3.9 18:54:57 10° NNE 18:58:15 35° ENE 18:58:15 35° ENE
Cosmos 2285 Rocket 3.9 18:56:22 34° S 18:59:12 65° ESE 19:05:32 10° NNE
CZ-4B R/B 4.4 18:57:17 15° SSW 19:01:08 36° W 19:06:06 10° NNW
Cosmos 44 4.3 18:59:05 10° SW 19:03:06 40° WNW 19:07:11 10° N
ASTEX 1 3.3 18:58:58 10° NNE 19:03:45 61° E 19:03:45 61° E
COSMOS 2406 4.3 19:00:08 10° NW 19:05:23 38° WSW 19:08:17 23° SSW
Chandra Rocket (1) 3.6 18:50:32 10° WSW 19:08:25 51° S 19:09:46 45° SE
Cosmos 783 Rocket 4.5 19:04:33 10° N 19:09:46 62° ENE 19:10:02 61° E
Cosmos 1428 Rocket 4.4 19:10:49 56° SE 19:11:48 64° E 19:17:54 10° NNE
Tiangong 0.7 19:09:31 10° WNW 19:11:49 18° NNW 19:13:22 13° NNE
Ariane Rocket 3.6 19:14:10 42° ENE 19:14:10 42° ENE 19:18:34 10° N
Cosmos 2180 Rocket 4.4 19:14:20 10° N 19:20:34 86° W 19:22:04 55° S
Terra 2.6 19:19:52 40° SW 19:20:45 45° W 19:25:16 10° NNW
Sich 1 Rocket 3.8 19:16:57 10° N 19:20:59 70° N 19:20:59 70° N
Yuri Rocket 4.4 19:18:13 10° WSW 19:27:52 64° S 19:29:12 56° SE
Cosmos 1025 Rocket 4.0 19:28:15 40° W 19:28:43 41° W 19:32:50 10° N
Okean-O 3.9 19:29:18 32° WSW 19:29:43 33° W 19:33:40 10° NW
Cosmos 1092 Rocket 4.2 19:30:19 54° E 19:30:19 54° E 19:36:09 10° NNE
USA 245 4.2 19:32:01 50° WNW 19:32:01 50° WNW 19:35:09 10° NNW
Okean O Rocket 3.6 19:34:12 19° WSW 19:35:10 20° W 19:38:25 10° NW
NOSS 3-4 (A) 4.0 19:40:49 10° NNW 19:48:15 79° WSW 19:49:40 64° S
NOSS 3-4 (C) 4.0 19:40:52 10° NNW 19:48:18 80° WSW 19:49:39 65° S
Spot 2 Rocket 4.4 19:48:25 39° WSW 19:48:31 39° W 19:53:16 10° NNW
SPOT 3 Rocket 3.9 19:51:33 61° WNW 19:51:33 61° WNW 19:56:07 10° NNW
Cosmos 1898 Rocket 4.1 19:58:00 54° NW 19:58:00 54° NW 20:02:28 10° N
Cosmos 1980 Rocket 4.3 21:30:48 20° NNE 21:30:48 20° NNE 21:32:27 10° NNE
Cosmos 2297 Rocket 3.9 21:21:26 10° NNW 21:24:09 29° N 21:24:09 29° N
Cosmos 1697 Rocket 4.4 21:33:55 28° N 21:33:55 28° N 21:36:44 10° N
Cosmos 2227 Rocket 4.0 21:54:25 10° N 21:57:02 27° N 21:57:02 27° N
ATLAS 2AS CENTAUR R/B 4.2 22:06:25 10° N 22:12:01 27° NE 22:12:26 27° ENE
Cosmos 2263 Rocket 3.9 22:40:01 10° NNW 22:42:32 27° N 22:42:32 27° N
CENTAUR R/B 3.7 23:01:55 33° NE 23:01:55 33° NE 23:05:21 10° NNE
SL-16 R/B 3.6 23:03:12 34° NNE 23:03:12 34° NNE 23:06:17 10° NNE
Cosmos 2333 Rocket 3.7 23:09:54 32° NE 23:09:54 32° NE 23:13:07 10° NNE
CZ-2C R/B 4.2 23:17:20 31° NNW 23:17:20 31° NNW 23:20:08 10° NNW
Resurs 1-4 Rocket 4.1 23:13:37 10° NE 23:16:25 20° ENE 23:16:25 20° ENE
IDEFIX/ARIANE 42P 4.0 23:18:05 10° NNE 23:20:57 33° NNE 23:20:57 33° NNE
Milstar 3 Cent rocket 4.0 23:27:36 29° ESE 23:27:36 29° ESE 23:30:11 10° E
ATLAS 5 CENTAUR R/B 4.2 23:26:57 10° N 23:30:47 21° NE 23:35:09 10° ESE
CZ-2D R/B 3.6 23:32:34 10° NE 23:36:04 29° ENE 23:36:04 29° ENE
Cosmos 1844 Rocket 3.9 23:35:33 10° N 23:40:41 36° ENE 23:41:06 36° ENE
Cosmos 2360 Rocket 2.8 23:50:12 51° NNE 23:50:12 51° NNE 23:54:22 10° NNE
